Weather History for Fort Collins, CO

Change the Weather History Date:

Friday, April 25, 2014

  Actual Average Record
Temperature  
Mean Temperature 56 °F -  
Max Temperature 75 °F 60 °F 82 °F (2012)
Min Temperature 37 °F 35 °F 28 °F (2006)
Degree Days  
Heating Degree Days 9    
Growing Degree Days 6 (Base 50)    
Moisture  
Dew Point 29 °F    
Average Humidity 39    
Maximum Humidity 70    
Minimum Humidity 17    
Precipitation  
Precipitation 0.00 in - - ()
Sea Level Pressure  
Sea Level Pressure 29.81 in    
Wind  
Wind Speed 6 mph (SSE)    
Max Wind Speed 17 mph    
Max Gust Speed 25 mph    
Visibility 10 miles    
Events      
Averages and records for this station are not official NWS values.
T = Trace of Precipitation, MM = Missing Value Source: NWS Daily Summary

Daily Weather History Graph

Daily Weather History Graph

Search for Another Location

Airport:

Trip Planner

Search our weather history database for the weather conditions in past years. The results will help you decide how hot, cold, wet, or windy it might be!

Date:

Astronomy

Apr. 25, 2014 Rise Set
Actual Time 6:07 AM MDT 7:49 PM MDT
Civil Twilight 5:38 AM MDT 8:18 PM MDT
Nautical Twilight 5:02 AM MDT 8:53 PM MDT
Astronomical Twilight 4:25 AM MDT 9:31 PM MDT
Moon 3:57 AM MDT (4/25) 4:13 PM MDT (4/25)
Length of Visible Light 14h 40m
Length of Day
13h 42m
Waning Crescent, 15% of the Moon is Illuminated
Apr 25
Waning Crescent
Apr 29
New
May 6
First Quarter
May 14
Full
May 21
Last Quarter

Hourly Weather History & Observations

Time (MDT) Temp. Windchill Dew Point Humidity Pressure Visibility Wind Dir Wind Speed Gust Speed Precip Events Conditions
12:15 AM 46.4 °F 45.2 °F 26.6 °F 46% 29.93 in 10.0 mi NE 3.5 mph - N/A   Clear
12:35 AM 48.2 °F - 26.6 °F 43% 29.93 in 10.0 mi NNE 3.5 mph - N/A   Clear
12:55 AM 42.8 °F 39.3 °F 26.6 °F 53% 29.94 in 10.0 mi NNW 5.8 mph - N/A   Clear
1:15 AM 42.8 °F 39.3 °F 30.2 °F 61% 29.94 in 10.0 mi NNW 5.8 mph - N/A   Clear
1:35 AM 42.8 °F 41.1 °F 28.4 °F 57% 29.94 in 10.0 mi NNW 3.5 mph - N/A   Clear
1:55 AM 44.6 °F 43.1 °F 28.4 °F 53% 29.93 in 10.0 mi SSE 3.5 mph - N/A   Clear
2:15 AM 44.6 °F - 28.4 °F 53% 29.93 in 10.0 mi Calm Calm - N/A   Clear
2:35 AM 42.8 °F 39.3 °F 28.4 °F 57% 29.92 in 10.0 mi NE 5.8 mph - N/A   Clear
2:55 AM 44.6 °F 40.2 °F 28.4 °F 53% 29.92 in 10.0 mi East 8.1 mph - N/A   Clear
3:15 AM 39.2 °F 37.0 °F 26.6 °F 61% 29.92 in 10.0 mi SSW 3.5 mph - N/A   Clear
3:35 AM 39.2 °F 35.9 °F 26.6 °F 61% 29.92 in 10.0 mi SSW 4.6 mph - N/A   Clear
3:55 AM 41.0 °F 38.0 °F 28.4 °F 61% 29.92 in 10.0 mi SW 4.6 mph - N/A   Clear
4:15 AM 41.0 °F 38.0 °F 30.2 °F 65% 29.92 in 10.0 mi South 4.6 mph - N/A   Clear
4:35 AM 41.0 °F 37.1 °F 30.2 °F 65% 29.92 in 10.0 mi South 5.8 mph - N/A   Clear
4:55 AM 37.4 °F 33.8 °F 28.4 °F 70% 29.92 in 10.0 mi SSE 4.6 mph - N/A   Clear
5:15 AM 37.4 °F 32.8 °F 24.8 °F 60% 29.92 in 10.0 mi South 5.8 mph - N/A   Clear
5:35 AM 39.2 °F 35.0 °F 28.4 °F 65% 29.92 in 10.0 mi South 5.8 mph - N/A   Clear
5:55 AM 39.2 °F 35.9 °F 28.4 °F 65% 29.92 in 10.0 mi South 4.6 mph - N/A   Clear
6:15 AM 39.2 °F 37.0 °F 30.2 °F 70% 29.92 in 10.0 mi South 3.5 mph - N/A   Clear
6:35 AM 42.8 °F 41.1 °F 30.2 °F 61% 29.92 in 10.0 mi SSW 3.5 mph - N/A   Clear
6:55 AM 44.6 °F 43.1 °F 28.4 °F 53% 29.92 in 10.0 mi South 3.5 mph - N/A   Clear
7:15 AM 44.6 °F 43.1 °F 30.2 °F 57% 29.93 in 10.0 mi SE 3.5 mph - N/A   Clear
7:35 AM 46.4 °F 45.2 °F 30.2 °F 53% 29.93 in 10.0 mi SSE 3.5 mph - N/A   Clear
7:55 AM 48.2 °F - 32.0 °F 54% 29.93 in 10.0 mi Calm Calm - N/A   Clear
8:15 AM 48.2 °F - 30.2 °F 50% 29.93 in 10.0 mi SE 3.5 mph - N/A   Clear
8:35 AM 48.2 °F - 33.8 °F 58% 29.94 in 10.0 mi South 3.5 mph - N/A   Clear
8:55 AM 50.0 °F - 35.6 °F 58% 29.93 in 10.0 mi Calm Calm - N/A   Clear
9:15 AM 51.8 °F - 30.2 °F 44% 29.93 in 10.0 mi SE 5.8 mph - N/A   Clear
9:35 AM 51.8 °F - 32.0 °F 47% 29.93 in 10.0 mi SE 5.8 mph - N/A   Clear
9:55 AM 55.4 °F - 30.2 °F 38% 29.92 in 10.0 mi SSE 6.9 mph - N/A   Clear
10:15 AM 57.2 °F - 30.2 °F 36% 29.92 in 10.0 mi SSE 9.2 mph - N/A   Clear
10:35 AM 57.2 °F - 30.2 °F 36% 29.92 in 10.0 mi SE 9.2 mph - N/A   Clear
10:55 AM 57.2 °F - 30.2 °F 36% 29.91 in 10.0 mi SE 10.4 mph - N/A   Clear
11:15 AM 59.0 °F - 33.8 °F 39% 29.90 in 10.0 mi East 9.2 mph - N/A   Clear
11:35 AM 57.2 °F - 33.8 °F 41% 29.89 in 10.0 mi ESE 9.2 mph - N/A   Clear
11:55 AM 62.6 °F - 35.6 °F 37% 29.88 in 10.0 mi SE 11.5 mph - N/A   Partly Cloudy
12:15 PM 64.4 °F - 35.6 °F 34% 29.86 in 10.0 mi SE 9.2 mph 17.3 mph N/A   Clear
12:35 PM 66.2 °F - 33.8 °F 30% 29.85 in 10.0 mi ESE 12.7 mph 18.4 mph N/A   Clear
12:55 PM 68.0 °F - 33.8 °F 28% 29.82 in 10.0 mi ESE 17.3 mph 20.7 mph N/A   Clear
1:15 PM 69.8 °F - 33.8 °F 27% 29.82 in 10.0 mi ESE 13.8 mph 25.3 mph N/A   Clear
1:35 PM 69.8 °F - 33.8 °F 27% 29.80 in 10.0 mi SSE 12.7 mph - N/A   Clear
1:55 PM 71.6 °F - 33.8 °F 25% 29.79 in 10.0 mi SSE 12.7 mph 20.7 mph N/A   Clear
2:15 PM 73.4 °F - 33.8 °F 23% 29.78 in 10.0 mi SE 10.4 mph 19.6 mph N/A   Clear
2:35 PM 73.4 °F - 32.0 °F 22% 29.76 in 10.0 mi South 11.5 mph 18.4 mph N/A   Clear
2:55 PM 75.2 °F - 30.2 °F 19% 29.74 in 10.0 mi SE 13.8 mph 21.9 mph N/A   Clear
3:15 PM 73.4 °F - 28.4 °F 19% 29.74 in 10.0 mi South 11.5 mph - N/A   Clear
3:35 PM 73.4 °F - 28.4 °F 19% 29.73 in 10.0 mi SSW 8.1 mph - N/A   Clear
3:55 PM 71.6 °F - 26.6 °F 19% 29.72 in 10.0 mi SSE 9.2 mph 17.3 mph N/A   Clear
4:15 PM 71.6 °F - 24.8 °F 17% 29.71 in 10.0 mi SE 5.8 mph - N/A   Clear
4:35 PM 73.4 °F - 26.6 °F 18% 29.69 in 10.0 mi SSE 10.4 mph 16.1 mph N/A   Clear
4:55 PM 73.4 °F - 26.6 °F 18% 29.69 in 10.0 mi SSE 12.7 mph - N/A   Clear
5:15 PM 73.4 °F - 26.6 °F 18% 29.68 in 10.0 mi SE 10.4 mph - N/A   Clear
5:35 PM 71.6 °F - 24.8 °F 17% 29.67 in 10.0 mi SSE 10.4 mph - N/A   Clear
5:55 PM 69.8 °F - 24.8 °F 18% 29.67 in 10.0 mi SSE 11.5 mph - N/A   Clear
6:15 PM 69.8 °F - 26.6 °F 20% 29.66 in 10.0 mi SE 10.4 mph - N/A   Clear
6:35 PM 69.8 °F - 26.6 °F 20% 29.66 in 10.0 mi SE 8.1 mph - N/A   Clear
6:55 PM 68.0 °F - 26.6 °F 21% 29.65 in 10.0 mi ESE 10.4 mph - N/A   Clear
7:15 PM 66.2 °F - 24.8 °F 21% 29.64 in 10.0 mi ESE 11.5 mph - N/A   Clear
7:35 PM 66.2 °F - 24.8 °F 21% 29.64 in 10.0 mi East 9.2 mph - N/A   Clear
7:55 PM 64.4 °F - 26.6 °F 24% 29.64 in 10.0 mi ESE 11.5 mph - N/A   Clear
8:15 PM 64.4 °F - 26.6 °F 24% 29.64 in 10.0 mi SE 13.8 mph - N/A   Clear
8:35 PM 62.6 °F - 24.8 °F 24% 29.64 in 10.0 mi SE 10.4 mph - N/A   Clear
8:55 PM 60.8 °F - 24.8 °F 25% 29.65 in 10.0 mi SE 9.2 mph - N/A   Clear
9:15 PM 57.2 °F - 26.6 °F 31% 29.65 in 10.0 mi South 4.6 mph - N/A   Clear
9:35 PM 59.0 °F - 26.6 °F 29% 29.65 in 10.0 mi SE 9.2 mph - N/A   Clear
9:55 PM 57.2 °F - 26.6 °F 31% 29.65 in 10.0 mi SE 9.2 mph - N/A   Clear
10:15 PM 59.0 °F - 26.6 °F 29% 29.66 in 10.0 mi SSE 6.9 mph - N/A   Clear
10:35 PM 62.6 °F - 24.8 °F 24% 29.65 in 10.0 mi South 9.2 mph 19.6 mph N/A   Clear
11:15 PM 55.4 °F - 28.4 °F 36% 29.63 in 10.0 mi SSE 11.5 mph - N/A   Clear
11:35 PM 53.6 °F - 26.6 °F 35% 29.63 in 10.0 mi South 9.2 mph - N/A   Clear
11:55 PM 51.8 °F - 28.4 °F 41% 29.63 in 10.0 mi South 6.9 mph - N/A   Clear